Regional Weather Roundup
Issued by NWS

Home | Current Version | Previous Version | Text Only | Print | Product List | Glossary On
Versions: 1 2 3 4 5 6 7 8 9 10 11 12 13 14 15 16 17 18 19 20 21 22 23 24 25 26 27 28 29 30 31 32 33 34 35 36 37 38 39 40 41 42 43 44 45 46 47 48 49 50
000
ASUS43 KLOT 222109
RWRIL

ILLINOIS REGIONAL WEATHER ROUNDUP
NATIONAL WEATHER SERVICE CHICAGO/ROMEOVILLE IL
400 PM CDT THU JUN 22 2017

NOTE: "FAIR" INDICATES FEW OR NO CLOUDS BELOW 12,000 FEET WITH NO
SIGNIFICANT WEATHER AND/OR OBSTRUCTIONS TO VISIBILITY.

* THESE STATIONS ARE NOT UNDER NWS QUALITY CONTROL. THEY ALSO MAY NOT
  REPORT WEATHER SUCH AS PRECIPITATION OR FOG.

ILZ001-002-007-009-015-016-024-222200-
NORTHWEST ILLINOIS

CITY           SKY/WX    TMP DP  RH WIND       PRES   REMARKS
MOLINE         MOSUNNY   87  71  58 S13       29.72F HX  93
STERLING*      CLOUDY    84  72  67 VRB6G17   29.75F HX  89
SAVANNA*       MOSUNNY   87  71  58 S15G24    29.69F HX  93
$$

ILZ003-004-008-010-011-017-018-222200-
NORTH CENTRAL ILLINOIS

CITY           SKY/WX    TMP DP  RH WIND       PRES   REMARKS
ROCKFORD       CLOUDY    85  69  58 SW10G21   29.75F HX  89
FREEPORT*      MOSUNNY   83  69  64 S16       29.73F HX  86
ROCHELLE*      PTSUNNY   85  71  62 S16       29.76F HX  89
DE KALB*       PTSUNNY   85  69  57 S20       29.77F HX  89
PERU*          CLOUDY    82  70  65 SW13      29.77F HX  86
$$

ILZ005-006-012>014-019>023-222200-
NORTHEAST ILLINOIS

CITY           SKY/WX    TMP DP  RH WIND       PRES   REMARKS
CHICAGO-OHARE  PTSUNNY   88  68  51 SW16G23   29.74F HX  91
CHICAGO-MIDWAY TSTM      85  71  63 SW20      29.76F HX  90
AURORA         MOSUNNY   86  71  60 SW18G25   29.77F HX  91
LANSING*       CLOUDY    86  68  55 S20G25    29.78F HX  89
JOLIET*        CLOUDY    85  72  65 SW10G17   29.78F HX  91
WAUKEGAN       PTSUNNY   85  70  60 SW12      29.75F HX  89
DUPAGE AIRPORT MOSUNNY   86  71  60 SW15G28   29.76F HX  91
WHEELING       MOSUNNY   86  70  58 SW14      29.76F HX  90
MORRIS*        CLOUDY    85  70  59 SW21      29.76F HX  90
ROMEOVILLE*    PTSUNNY  N/A N/A N/A S22G28    29.77F
NORTHERLY ISL    N/A     84  68  58 S12         N/A  HX  87
$$

LMZ740>746-222200-
SOUTHERN LAKE MICHIGAN

STATION/POSITION SKY/WX   TEMP    WIND        PRES    VSBY  WAVE
                          AIR SEA DIR/SP/G                  HT/PER
                          (F)     (DEG/KT/KT) (MB)    (MI)  (FT/S)
SOUTHERN BUOY              66 61  200/ 10/ 10 1008.6          2/ 4
WILMETTE HARBOR            78 65  210/ 10/ 14   N/A           1/ 3
HARRISON CRIB              83     200/ 14/ 17   N/A
BURNHAM HARBOR             82                   N/A
CALUMET HARBOR             84     180/ 15/ 19 1007.6F
BURNS HARBOR               85     190/ 17/ 23 1008.8F
MICHIGAN CITY              83     170/ 19/ 22   N/A
MICHIGAN CITY 6N           78 68  200/ 14/ 19   N/A           1/ 2
ST. JOSEPH                 75 70  240/  4/  6 1008.4          1/ 3
$$

ILZ025>027-034>036-040-047-049-050-058-095>099-222200-
WEST-CENTRAL ILLINOIS

CITY           SKY/WX    TMP DP  RH WIND       PRES   REMARKS
QUINCY         CLOUDY    82  72  71 S8        29.75F HX  87
GALESBURG*     PTSUNNY   82  70  68 S13G18    29.77F HX  86
MACOMB*        CLOUDY    82  71  70 S6        29.79S HX  86
JACKSONVILLE*  CLOUDY    82  72  71 S8        29.77S HX  86
PITTSFIELD*    CLOUDY    83  73  73 S8        29.77F HX  89
$$

ILZ028>032-037-038-041>044-048-051>054-059>061-222200-
CENTRAL ILLINOIS

CITY           SKY/WX    TMP DP  RH WIND       PRES   REMARKS
PONTIAC        CLOUDY    83  73  71 S14       29.80F HX  89
BLOOMINGTON    CLOUDY    82  71  69 S15       29.80F HX  86
DECATUR        CLOUDY    82  71  69 S12       29.79F HX  86
PEORIA         CLOUDY    82  73  74 S12       29.78F HX  87
LACON*         PTSUNNY   83  73  72 S10       29.76F HX  88
LINCOLN*       CLOUDY    83  72  69 S14G20    29.78F HX  89
SPRINGFIELD    CLOUDY    85  74  69 S8G20     29.77F HX  92
TAYLORVILLE    PTSUNNY   83  73  72 S10G22    29.79F HX  89
$$

ILZ033-039-045-046-055>057-062-063-222200-
EAST-CENTRAL ILLINOIS

CITY           SKY/WX    TMP DP  RH WIND       PRES   REMARKS
CHAMPAIGN      CLOUDY    83  71  67 S17G24    29.82F HX  87
RANTOUL*       CLOUDY    83  73  72 S16G23    29.82F HX  89
MATTOON        CLOUDY    76  74  93 S12G25    29.83S
PARIS*         CLOUDY    79  72  79 S15G22    29.85F HX  82
$$

ILZ079-100>102-222200-
SOUTHWEST ILLINOIS

CITY           SKY/WX    TMP DP  RH WIND       PRES   REMARKS
ALTON          PTSUNNY   81  72  74 SE13      29.78F HX  84
BELLEVILLE     CLOUDY    81  75  83 S12       29.78F HX  86
CAHOKIA*       CLOUDY    85  71  63 S9        29.76F HX  90
SPARTA*        CLOUDY    78  73  83 S9        29.79F HX  81
$$

ILZ064>066-069>071-074>076-080>082-084>086-088>090-092>094-222200-
SOUTH-CENTRAL ILLINOIS

CITY           SKY/WX    TMP DP  RH WIND       PRES   REMARKS
CARBONDALE     PTSUNNY   80  75  84 S13       29.80F HX  85
CAIRO*         CLOUDY    79  74  85 SE9       29.80F HX  83
EFFINGHAM*     CLOUDY    77  73  88 SE10      29.84F
MARION         CLOUDY    77  77 100 S5        29.82F
MT. VERNON     CLOUDY    76  73  91 SE9       29.82F
CENTRALIA*     CLOUDY    76  74  93 SE9       29.80F FOG
SALEM*         DRIZZLE   76  73  91 SE6       29.81F
METROPOLIS*    CLOUDY    78  74  86 SE5       29.82F HX  81
$$

ILZ067-068-072-073-078-083-087-091-222200-
SOUTHEAST ILLINOIS

CITY           SKY/WX    TMP DP  RH WIND       PRES   REMARKS
LAWRENCEVILLE  CLOUDY    74  71  91 SE10      29.87F
FLORA*         CLOUDY    79  73  81 SE14G20   29.84F HX  82
FAIRFIELD*     CLOUDY    76  74  91 SE9       29.83F FOG
HARRISBURG*    LGT RAIN  76  74  92 SE8       29.83F
ROBINSON*      CLOUDY    75  70  85 S16G22    29.87F
CARMI*         CLOUDY    76  73  91 SE13G18   29.84S
$$

ABBREVIATIONS USED IN REMARKS
   TC - TEMPERATURE IN CELSIUS
  WCI - WIND CHILL INDEX
   HX - HEAT INDEX
  VSB - VISIBILITY
$$




USA.gov is the U.S. government's official web portal to all federal, state and local government web resources and services.